FW7348 Weather Reports


Display with metric or nautical units.
time (UTC)temp
F
wind
direction
speed
MPH
gust
MPH
rain 1hr
in
rain 24hr
in
rain mn
in
humidity
%
barometer
mb
20260510115455 36 341 3.0 13.0 0.00 0.00 0.00 85 1020.5
20260510114950 35 315 4.0 9.0 0.00 0.00 0.00 87 1020.4
20260510114448 35 292 6.0 10.0 0.00 0.00 0.00 88 1020.0
20260510113943 35 320 4.0 10.0 0.00 0.00 0.00 88 1020.4
20260510113438 35 328 7.0 11.0 0.00 0.00 0.00 88 1020.4
20260510112937 35 350 10.0 13.0 0.00 0.00 0.00 88 1020.2
20260510112434 35 339 8.0 10.0 0.00 0.00 0.00 89 1020.2
20260510111929 35 321 4.0 9.0 0.00 0.00 0.00 89 1019.8
20260510111426 35 327 3.0 8.0 0.00 0.00 0.00 89 1019.8
20260510110922 35 8 5.0 11.0 0.00 0.00 0.00 90 1019.7
20260510110418 35 318 4.0 10.0 0.00 0.00 0.00 90 1019.4
20260510105914 35 3 7.0 16.0 0.00 0.00 0.00 90 1019.6
20260510105409 35 7 3.0 8.0 0.00 0.00 0.00 90 1019.4
20260510104904 35 330 12.0 15.0 0.00 0.00 0.00 90 1019.2
20260510104402 35 357 7.0 13.0 0.00 0.00 0.00 90 1019.3
20260510103858 35 278 6.0 14.0 0.00 0.00 0.00 90 1019.2
20260510103355 34 318 8.0 11.0 0.00 0.00 0.00 91 1019.0
20260510102851 34 347 5.0 11.0 0.00 0.00 0.00 91 1018.9
20260510102347 34 329 9.0 13.0 0.00 0.00 0.00 91 1018.9
20260510101844 34 334 10.0 13.0 0.00 0.00 0.00 91 1019.0
20260510101342 34 327 5.0 8.0 0.00 0.00 0.00 92 1018.8
20260510100838 34 287 4.0 11.0 0.00 0.00 0.00 92 1019.0
20260510100336 34 324 5.0 10.0 0.00 0.00 0.00 92 1019.0
20260510095832 34 344 5.0 9.0 0.00 0.00 0.00 92 1019.0
20260510095326 34 300 7.0 14.0 0.00 0.00 0.00 92 1019.0
20260510094821 34 319 8.0 9.0 0.00 0.00 0.00 92 1018.7
20260510094316 34 7 9.0 14.0 0.00 0.00 0.00 92 1018.8
20260510093813 35 321 6.0 9.0 0.00 0.00 0.00 92 1018.9
20260510093309 35 287 10.0 13.0 0.00 0.00 0.00 92 1018.8
20260510092805 35 327 8.0 11.0 0.00 0.00 0.00 92 1018.8
20260510092301 35 355 6.0 7.0 0.00 0.00 0.00 93 1018.6
20260510091757 34 315 5.0 7.0 0.00 0.00 0.00 93 1018.7
20260510091255 34 356 3.0 10.0 0.00 0.00 0.00 93 1018.5
20260510090751 34 307 3.0 9.0 0.00 0.00 0.00 93 1018.6
20260510090248 34 326 3.0 6.0 0.00 0.00 0.00 93 1018.5
20260510085744 34 355 4.0 8.0 0.00 0.00 0.00 93 1018.7
20260510085238 35 345 5.0 10.0 0.00 0.00 0.00 93 1018.4
20260510084734 34 292 4.0 8.0 0.00 0.00 0.00 93 1018.5
20260510084231 34 296 4.0 6.0 0.00 0.00 0.00 93 1018.2
20260510083727 34 326 5.0 7.0 0.00 0.00 0.00 93 1018.3
20260510083224 35 348 3.0 8.0 0.00 0.00 0.00 93 1018.2
20260510082720 34 328 4.0 6.0 0.00 0.00 0.00 93 1018.3
20260510082217 34 322 5.0 7.0 0.00 0.00 0.00 93 1018.4
20260510081716 35 315 3.0 10.0 0.00 0.00 0.00 93 1018.0
20260510081212 35 333 3.0 10.0 0.00 0.00 0.00 93 1018.3
20260510080707 35 300 5.0 7.0 0.00 0.00 0.00 93 1018.1
20260510080203 35 327 2.0 8.0 0.00 0.00 0.00 91 1018.1
20260510075700 35 334 6.0 8.0 0.00 0.00 0.00 90 1018.1
20260510075158 35 307 3.0 7.0 0.00 0.00 0.00 91 1018.2
20260510074655 35 330 4.0 10.0 0.00 0.00 0.00 90 1018.1
20260510074150 35 327 8.0 11.0 0.00 0.00 0.00 90 1018.0
20260510073647 35 325 3.0 6.0 0.00 0.00 0.00 90 1017.9
20260510073143 35 330 3.0 10.0 0.00 0.00 0.00 91 1017.9
20260510072640 35 4 5.0 9.0 0.00 0.00 0.00 90 1017.8
20260510072136 35 300 5.0 11.0 0.00 0.00 0.00 91 1017.8
20260510071632 35 329 4.0 9.0 0.00 0.00 0.00 91 1018.0
20260510071130 35 325 9.0 11.0 0.00 0.00 0.00 92 1018.0
20260510070627 35 10 4.0 10.0 0.00 0.00 0.00 92 1017.8
20260510070124 35 348 3.0 6.0 0.00 0.00 0.00 92 1017.7
20260510065620 35 328 3.0 6.0 0.00 0.00 0.00 91 1018.0
20260510065116 35 328 2.0 10.0 0.00 0.00 0.00 91 1017.8
20260510064613 34 333 5.0 10.0 0.00 0.00 0.00 92 1017.6
20260510064109 34 292 4.0 6.0 0.00 0.00 0.00 92 1017.4
20260510063601 34 340 4.0 5.0 0.00 0.00 0.00 92 1017.5
20260510063058 34 311 4.0 7.0 0.00 0.00 0.00 91 1017.6
20260510062553 34 331 3.0 6.0 0.00 0.00 0.00 92 1017.6
20260510062049 34 324 5.0 7.0 0.00 0.00 0.00 92 1017.4
20260510061545 35 304 2.0 6.0 0.00 0.00 0.00 92 1017.3
20260510061042 35 336 2.0 5.0 0.00 0.00 0.00 92 1017.3
20260510060538 35 356 3.0 6.0 0.00 0.00 0.00 92 1017.3
20260510060035 35 335 3.0 9.0 0.00 0.00 0.00 91 1017.5
20260510055531 35 344 4.0 7.0 0.00 0.00 0.00 92 1017.5
20260510055030 35 330 5.0 6.0 0.00 0.00 0.00 91 1017.5
20260510054525 35 315 2.0 6.0 0.00 0.00 0.00 91 1017.8
20260510054020 35 291 3.0 6.0 0.00 0.00 0.00 90 1017.6
20260510053515 35 333 3.0 9.0 0.00 0.00 0.00 90 1017.5
20260510053012 36 324 8.0 10.0 0.00 0.00 0.00 88 1017.4
20260510052508 36 315 5.0 8.0 0.00 0.00 0.00 89 1017.6
20260510052004 35 321 4.0 14.0 0.00 0.00 0.00 89 1017.8
20260510051500 35 318 5.0 10.0 0.00 0.00 0.00 90 1017.8
20260510050957 35 341 4.0 7.0 0.00 0.00 0.00 91 1017.5
20260510050454 34 277 4.0 6.0 0.00 0.00 0.00 91 1017.3
20260510045951 34 344 4.0 7.0 0.00 0.00 0.00 91 1017.2
20260510045448 35 340 3.0 5.0 0.00 0.00 0.00 91 1017.0
20260510044944 35 344 4.0 6.0 0.00 0.00 0.00 91 1016.9
20260510044441 34 288 1.0 3.0 0.00 0.00 0.00 91 1017.3
20260510043938 34 314 1.0 3.0 0.00 0.00 0.00 91 1017.4
20260510043434 34 308 1.0 3.0 0.00 0.00 0.00 91 1017.3
20260510042932 35 281 1.0 2.0 0.00 0.00 0.00 90 1017.2
20260510042428 35 265 1.0 2.0 0.00 0.00 0.00 90 1017.2
20260510041924 35 255 0.0 1.0 0.00 0.00 0.00 90 1017.0
20260510041421 35 256 3.0 5.0 0.00 0.00 0.00 89 1017.3
20260510040919 36 340 1.0 5.0 0.00 0.00 0.00 89 1017.2
20260510040415 36 315 2.0 3.0 0.00 0.00 0.00 89 1017.0
20260510035911 36 336 1.0 2.0 0.00 0.00 0.00 89 1017.0
20260510035408 36 316 2.0 6.0 0.00 0.00 0.00 88 1016.9
20260510034902 36 330 3.0 6.0 0.00 0.00 0.00 88 1016.8
20260510034401 36 315 3.0 3.0 0.00 0.00 0.00 89 1016.7
20260510033857 36 307 2.0 7.0 0.00 0.00 0.00 87 1016.7
20260510033354 36 243 2.0 5.0 0.00 0.00 0.00 87 1016.7
20260510032850 37 308 1.0 2.0 0.00 0.00 0.00 87 1016.8
20260510032347 37 321 0.0 3.0 0.00 0.00 0.00 86 1016.7
20260510031843 37 357 2.0 6.0 0.00 0.00 0.00 86 1016.6
20260510031338 37 315 5.0 6.0 0.00 0.00 0.00 86 1017.2
20260510030838 37 311 1.0 5.0 0.00 0.00 0.00 86 1017.0
20260510030335 37 317 3.0 9.0 0.00 0.00 0.00 85 1016.7
20260510025832 37 11 4.0 9.0 0.00 0.00 0.00 85 1016.5
20260510025329 37 334 1.0 7.0 0.00 0.00 0.00 86 1016.8
20260510024826 37 346 5.0 7.0 0.00 0.00 0.00 86 1016.8
20260510024323 37 325 5.0 9.0 0.00 0.00 0.00 86 1016.8
20260510023819 37 309 2.0 5.0 0.00 0.00 0.00 87 1016.9
20260510023315 37 314 1.0 8.0 0.00 0.00 0.00 87 1016.5
20260510022813 38 302 2.0 8.0 0.00 0.00 0.00 87 1016.6
20260510022312 38 347 3.0 5.0 0.00 0.00 0.00 86 1016.6
20260510021811 38 247 1.0 5.0 0.00 0.00 0.00 86 1016.9
20260510021310 38 290 4.0 8.0 0.00 0.00 0.00 84 1016.7
20260510020806 37 318 2.0 3.0 0.00 0.00 0.00 87 1016.5
20260510020306 36 342 2.0 2.0 0.00 0.00 0.00 90 1016.4
20260510015802 36 287 3.0 3.0 0.00 0.00 0.00 89 1016.2
20260510015258 37 351 1.0 3.0 0.00 0.00 0.00 87 1015.8
20260510014753 36 319 3.0 5.0 0.00 0.00 0.00 88 1015.9
20260510014250 37 345 2.0 2.0 0.00 0.00 0.00 89 1015.8
20260510013746 37 332 2.0 5.0 0.00 0.00 0.00 88 1015.7
20260510013242 37 0 2.0 3.0 0.00 0.00 0.00 88 1015.5
20260510012737 37 337 2.0 5.0 0.00 0.00 0.00 89 1015.5
20260510012232 37 324 2.0 3.0 0.00 0.00 0.00 90 1015.4
20260510011732 37 317 4.0 6.0 0.00 0.00 0.00 89 1015.4
20260510011227 38 331 3.0 3.0 0.00 0.00 0.00 90 1015.3
20260510010725 38 341 3.0 5.0 0.00 0.00 0.00 88 1015.3
20260510010221 38 16 3.0 9.0 0.00 0.00 0.00 87 1015.3
20260510005718 41 288 8.0 13.0 0.00 0.00 0.00 78 1015.6
20260510005214 42 315 4.0 7.0 0.00 0.00 0.00 68 1015.5
20260510004713 42 358 2.0 2.0 0.00 0.00 0.00 68 1015.0
20260510004211 42 317 3.0 6.0 0.00 0.00 0.00 67 1014.7
20260510003708 42 321 7.0 8.0 0.00 0.00 0.00 67 1015.0
20260510003203 43 347 2.0 6.0 0.00 0.00 0.00 66 1014.5
20260510002657 43 19 4.0 7.0 0.00 0.00 0.00 66 1014.5
20260510002155 43 25 5.0 10.0 0.00 0.00 0.00 66 1014.7
20260510001651 43 294 6.0 9.0 0.00 0.00 0.00 67 1014.7
20260510001150 42 2 6.0 11.0 0.00 0.00 0.00 68 1014.5
20260510000650 43 303 7.0 15.0 0.00 0.00 0.00 67 1014.6
20260510000148 45 321 11.0 18.0 0.00 0.00 0.00 56 1014.7
20260509235644 46 256 1.0 9.0 0.00 0.00 0.00 50 1014.2
20260509235141 46 350 2.0 3.0 0.00 0.00 0.00 50 1014.2
20260509234637 47 258 14.0 20.0 0.00 0.00 0.00 49 1013.7
20260509234135 47 318 8.0 10.0 0.00 0.00 0.00 48 1013.8
20260509233633 48 310 4.0 7.0 0.00 0.00 0.00 48 1013.7
20260509233130 48 295 4.0 9.0 0.00 0.00 0.00 48 1013.6
20260509232626 47 223 4.0 6.0 0.00 0.00 0.00 49 1013.6
20260509232123 47 320 8.0 10.0 0.00 0.00 0.00 48 1013.5
20260509231619 46 238 1.0 11.0 0.00 0.00 0.00 49 1013.6
20260509231117 46 240 1.0 6.0 0.00 0.00 0.00 49 1013.5
20260509230614 46 10 4.0 7.0 0.00 0.00 0.00 49 1013.5
20260509230111 47 209 2.0 11.0 0.00 0.00 0.00 48 1013.6
20260509225607 47 300 4.0 9.0 0.00 0.00 0.00 48 1013.5
20260509225102 47 317 4.0 11.0 0.00 0.00 0.00 48 1013.5
20260509224557 47 259 8.0 13.0 0.00 0.00 0.00 48 1013.4
20260509224055 47 359 2.0 14.0 0.00 0.00 0.00 48 1013.3
20260509223552 47 14 5.0 6.0 0.00 0.00 0.00 47 1013.5
20260509223049 47 25 6.0 9.0 0.00 0.00 0.00 48 1013.4
20260509222545 48 286 4.0 8.0 0.00 0.00 0.00 46 1013.1
20260509222041 47 357 5.0 17.0 0.00 0.00 0.00 48 1013.1
20260509221537 47 303 4.0 15.0 0.00 0.00 0.00 49 1013.1
20260509221033 47 320 2.0 10.0 0.00 0.00 0.00 49 1013.2
20260509220529 48 312 5.0 10.0 0.00 0.00 0.00 50 1012.9
20260509220026 47 249 5.0 10.0 0.00 0.00 0.00 51 1012.9
20260509215521 47 217 10.0 13.0 0.00 0.00 0.00 49 1012.8
20260509215019 48 173 1.0 8.0 0.00 0.00 0.00 49 1012.8
20260509214516 50 296 2.0 9.0 0.00 0.00 0.00 48 1012.8
20260509214013 49 218 5.0 9.0 0.00 0.00 0.00 49 1012.9
20260509213508 46 305 9.0 14.0 0.00 0.00 0.00 52 1013.0
20260509213006 46 342 7.0 15.0 0.00 0.00 0.00 52 1012.9
20260509212503 47 325 5.0 10.0 0.00 0.00 0.00 52 1012.8
20260509211959 47 245 1.0 8.0 0.00 0.00 0.00 52 1012.7
20260509211455 47 291 2.0 11.0 0.00 0.00 0.00 52 1012.6
20260509210952 47 328 5.0 16.0 0.00 0.00 0.00 51 1012.5
20260509210449 48 246 5.0 14.0 0.00 0.00 0.00 52 1012.6
20260509205944 46 280 4.0 10.0 0.00 0.00 0.00 53 1012.8
20260509205439 46 355 11.0 16.0 0.00 0.00 0.00 53 1012.8
20260509204935 46 16 5.0 8.0 0.00 0.00 0.00 53 1012.6
20260509204431 46 320 6.0 11.0 0.00 0.00 0.00 53 1012.3
20260509203928 46 356 7.0 9.0 0.00 0.00 0.00 53 1012.7
20260509203424 45 90 6.0 16.0 0.00 0.00 0.00 53 1012.6
20260509202922 46 303 3.0 13.0 0.00 0.00 0.00 51 1012.2
20260509202418 46 284 4.0 6.0 0.00 0.00 0.00 51 1012.1
20260509201913 47 330 6.0 15.0 0.00 0.00 0.00 51 1012.3
20260509201408 46 319 20.0 25.0 0.00 0.00 0.00 52 1012.3
20260509200905 46 270 7.0 9.0 0.00 0.00 0.00 52 1012.2
20260509200400 46 206 5.0 9.0 0.00 0.00 0.00 51 1012.0
20260509195857 47 345 6.0 13.0 0.00 0.00 0.00 49 1012.0
20260509195356 47 323 11.0 20.0 0.00 0.00 0.00 49 1011.9
20260509194851 46 294 3.0 8.0 0.00 0.00 0.00 51 1011.9
20260509194348 47 279 12.0 16.0 0.00 0.00 0.00 49 1011.8
20260509193844 48 55 4.0 8.0 0.00 0.00 0.00 49 1011.7
20260509193344 48 335 10.0 13.0 0.00 0.00 0.00 49 1011.7
20260509192840 47 276 2.0 9.0 0.00 0.00 0.00 51 1011.4
20260509192336 45 341 6.0 13.0 0.00 0.00 0.00 52 1011.5
20260509191832 45 346 5.0 8.0 0.00 0.00 0.00 52 1011.7
20260509191328 45 310 4.0 8.0 0.00 0.00 0.00 53 1011.5
20260509190824 45 345 3.0 9.0 0.00 0.00 0.00 52 1011.5
20260509190321 45 342 5.0 11.0 0.00 0.00 0.00 51 1011.5
20260509185818 46 307 12.0 15.0 0.00 0.00 0.00 50 1011.2
20260509185314 46 333 8.0 13.0 0.00 0.00 0.00 49 1011.4
20260509184812 47 318 14.0 18.0 0.00 0.00 0.00 48 1011.2
20260509184309 46 314 11.0 15.0 0.00 0.00 0.00 51 1011.0
20260509183806 45 288 5.0 10.0 0.00 0.00 0.00 52 1010.8
20260509183301 45 327 8.0 11.0 0.00 0.00 0.00 52 1011.2
20260509182756 45 291 3.0 8.0 0.00 0.00 0.00 52 1011.0
20260509182254 45 39 3.0 11.0 0.00 0.00 0.00 52 1010.9
20260509181751 46 253 3.0 18.0 0.00 0.00 0.00 51 1010.8
20260509181249 48 260 6.0 7.0 0.00 0.00 0.00 48 1010.6
20260509180746 46 296 2.0 6.0 0.00 0.00 0.00 51 1010.6
20260509180242 45 354 7.0 11.0 0.00 0.00 0.00 51 1010.7
20260509175738 45 313 9.0 13.0 0.00 0.00 0.00 52 1010.6
20260509175229 44 16 3.0 17.0 0.00 0.00 0.00 53 1010.5
20260509174725 44 251 7.0 13.0 0.00 0.00 0.00 54 1010.2
20260509174220 44 334 7.0 13.0 0.00 0.00 0.00 55 1010.2
20260509173717 45 10 8.0 13.0 0.00 0.00 0.00 54 1010.2
20260509173213 46 288 5.0 9.0 0.00 0.00 0.00 53 1010.1
20260509172709 45 190 4.0 10.0 0.00 0.00 0.00 54 1010.0
20260509172205 45 288 5.0 11.0 0.00 0.00 0.00 53 1010.1
20260509171701 45 307 7.0 14.0 0.00 0.00 0.00 55 1009.8
20260509171157 45 333 5.0 7.0 0.00 0.00 0.00 55 1009.8
20260509170654 45 336 12.0 17.0 0.00 0.00 0.00 55 1009.8
20260509170150 46 306 12.0 21.0 0.00 0.00 0.00 53 1009.4
20260509165649 47 314 5.0 9.0 0.00 0.00 0.00 49 1009.4
20260509165144 45 351 8.0 13.0 0.00 0.00 0.00 53 1009.2
20260509164641 44 354 15.0 22.0 0.00 0.00 0.00 58 1009.6
20260509164136 44 318 10.0 17.0 0.00 0.00 0.00 59 1009.3
20260509163634 46 10 3.0 14.0 0.00 0.00 0.00 58 1009.0
20260509163130 46 332 9.0 15.0 0.00 0.00 0.00 57 1009.3
20260509162627 44 338 4.0 18.0 0.00 0.00 0.00 59 1009.1
20260509162123 46 264 10.0 16.0 0.00 0.00 0.00 57 1008.9
20260509161619 45 26 5.0 14.0 0.00 0.00 0.00 58 1009.0
20260509161115 45 323 12.0 22.0 0.00 0.00 0.00 58 1008.7
20260509160611 47 324 9.0 14.0 0.00 0.00 0.00 55 1008.7
20260509160106 46 322 13.0 23.0 0.00 0.00 0.00 57 1008.3
20260509155603 46 315 8.0 13.0 0.00 0.00 0.00 56 1008.8
20260509155059 46 279 3.0 15.0 0.00 0.00 0.00 56 1008.3
20260509154555 47 278 11.0 18.0 0.00 0.00 0.00 55 1008.4
20260509154053 46 332 9.0 10.0 0.00 0.00 0.00 55 1008.2
20260509153549 48 328 3.0 14.0 0.00 0.00 0.00 53 1007.7
20260509153046 46 6 10.0 13.0 0.00 0.00 0.00 53 1007.9
20260509152542 46 316 6.0 11.0 0.00 0.00 0.00 52 1007.7
20260509152040 47 316 7.0 17.0 0.00 0.00 0.00 52 1007.4
20260509151535 46 355 11.0 16.0 0.00 0.00 0.00 52 1007.6
20260509151033 46 5 6.0 11.0 0.00 0.00 0.00 51 1007.3
20260509150531 47 323 9.0 11.0 0.00 0.00 0.00 51 1007.3
20260509150029 46 308 4.0 15.0 0.00 0.00 0.00 53 1007.2
20260509145524 47 346 9.0 17.0 0.00 0.00 0.00 52 1007.0
20260509145019 46 185 3.0 10.0 0.00 0.00 0.00 53 1006.9
20260509144517 46 286 4.0 13.0 0.00 0.00 0.00 53 1006.6
20260509144014 46 346 2.0 13.0 0.00 0.00 0.00 54 1006.9
20260509143510 45 320 13.0 16.0 0.00 0.00 0.00 53 1006.9
20260509143009 45 4 6.0 16.0 0.00 0.00 0.00 53 1006.5
20260509142504 45 302 11.0 21.0 0.00 0.00 0.00 54 1006.5
20260509141959 46 350 14.0 20.0 0.00 0.00 0.00 54 1006.5
20260509141456 46 325 6.0 16.0 0.00 0.00 0.00 52 1006.3
20260509140953 45 299 3.0 13.0 0.00 0.00 0.00 54 1006.5
20260509140449 46 226 4.0 9.0 0.00 0.00 0.00 53 1006.4
20260509135948 45 315 9.0 10.0 0.00 0.00 0.00 54 1006.2
20260509135445 44 113 3.0 9.0 0.00 0.00 0.00 55 1006.2
20260509134942 44 350 7.0 10.0 0.00 0.00 0.00 56 1006.1
20260509134439 44 299 7.0 14.0 0.00 0.00 0.00 55 1006.0
20260509133936 44 92 2.0 16.0 0.00 0.00 0.00 55 1005.8
20260509133433 44 351 6.0 14.0 0.00 0.00 0.00 55 1005.8
20260509132932 44 279 5.0 13.0 0.00 0.00 0.00 55 1005.8
20260509132429 45 306 4.0 9.0 0.00 0.00 0.00 55 1005.6
20260509131926 45 221 2.0 13.0 0.00 0.00 0.00 54 1005.8
20260509131423 44 5 2.0 9.0 0.00 0.00 0.00 56 1005.6
20260509130920 42 333 2.0 11.0 0.00 0.00 0.00 57 1005.6
20260509130415 42 345 3.0 8.0 0.00 0.00 0.00 57 1005.9
20260509125912 43 288 7.0 9.0 0.00 0.00 0.00 57 1005.6
20260509125409 43 71 5.0 14.0 0.00 0.00 0.00 57 1005.4
20260509124904 43 302 3.0 11.0 0.00 0.00 0.00 56 1005.5
20260509124402 43 357 4.0 9.0 0.00 0.00 0.00 56 1005.3
20260509123900 43 255 3.0 6.0 0.00 0.00 0.00 55 1005.3
20260509123357 43 341 5.0 7.0 0.00 0.00 0.00 55 1005.5
20260509122853 42 113 2.0 6.0 0.00 0.00 0.00 56 1005.3
20260509122350 42 201 2.0 2.0 0.00 0.00 0.00 57 1005.3
20260509121846 41 42 2.0 9.0 0.00 0.00 0.00 57 1005.2
20260509121343 41 269 1.0 8.0 0.00 0.00 0.00 57 1005.2
20260509120842 41 327 2.0 3.0 0.00 0.00 0.00 58 1005.2
20260509120339 41 336 4.0 9.0 0.00 0.00 0.00 57 1005.3